Flag for U.S.A. Weather past 2 weeks in Fairbanks, Alaska, U.S.A.

Now
46 °F

Mostly cloudy.


Feels Like: 41 °F
Forecast: 37 / 46 °F
Wind: 10 mph from West

Location: Wainwright U. S. Army Airfield

Current Time: Aug 28, 2015 at 4:36:40 PM

Latest Report: Aug 28, 2015 at 3:58 PM


Visibility: 9 mi

Pressure: 29.84 "Hg

Humidity: 59%

Dew point: 32 °F

Location of FairbanksLocation

Historic Weather in Fairbanks — Graph

°F

Fairbanks temperature yesterday

Maximum temperature yesterday: 52 °F (at 12:01 AM)
Minimum temperature yesterday: 43 °F (at 8:58 PM)
Average temperature yesterday: 48 °F

Past Weeks' High & Low Weather Summary

 TemperatureHumidityPressure
High73 °F (Aug 15, 3:58 PM)100% (Aug 14, 8:04 AM)30.19 "Hg (Aug 14, 8:04 AM)
Low40 °F (Aug 28, 6:58 AM)34% (Aug 15, 4:58 PM)29.54 "Hg (Aug 18, 1:58 AM)
Average53 °F80%29.94 "Hg
* Reported Aug 13 2:58 PM — Aug 28 2:58 PM, Fairbanks, Weather by CustomWeather, © 2015

Note: Actual official high and low records may vary slightly from our data, if they occured in-between our weather recording intervals... More about our weather records

Advertising

Fairbanks weather history for previous 24 hours

 ConditionsComfort  
Time TempWeatherWind HumidityBarometerVisibility
2:58 PM
Fri, Aug 28
46 °FBroken clouds.10 mph58%29.85 "Hg10 mi
1:58 PM44 °FOvercast.9 mph62%29.87 "Hg9 mi
1:01 PM43 °FLight rain. Mostly cloudy.8 mph71%29.87 "Hg8 mi
11:58 AM43 °FMore clouds than sun.8 mph66%29.90 "Hg10 mi
10:45 AM41 °FMostly cloudy.9 mph76%29.91 "Hg9 mi
9:58 AM40 °FOvercast.13 mph76%29.93 "Hg10 mi
8:58 AM40 °FPartly sunny.10 mph76%29.95 "Hg9 mi
7:58 AM40 °FMostly cloudy.12 mph75%29.96 "Hg9 mi
6:58 AM40 °FPassing clouds.6 mph79%29.96 "Hg9 mi
5:58 AM40 °FMostly cloudy.8 mph79%29.96 "Hg10 mi
4:58 AM40 °FPassing clouds.10 mph80%29.96 "Hg10 mi
3:58 AM41 °FPassing clouds.10 mph79%29.96 "Hg10 mi
2:58 AM43 °FPassing clouds.10 mph75%29.93 "Hg10 mi
1:58 AM44 °FOvercast.10 mph73%29.92 "Hg10 mi
12:58 AM44 °FOvercast.10 mph72%29.91 "Hg10 mi
11:58 PM
Thu, Aug 27
44 °FOvercast.8 mph72%29.90 "Hg10 mi
10:58 PM44 °FOvercast.12 mph72%29.89 "Hg10 mi
9:58 PM45 °FOvercast.9 mph73%29.87 "Hg9 mi
8:58 PM43 °FFog.7 mph87%29.85 "Hg13 mi
8:04 PM46 °FLight rain. Mostly cloudy.12 mph66%29.84 "Hg8 mi
8:00 PM46 °FLight rain. Mostly cloudy.15 mph66%29.83 "Hg9 mi
7:58 PM46 °FMostly cloudy.17 mph64%29.84 "Hg10 mi
6:58 PM47 °FPartly sunny.18 mph62%29.81 "Hg10 mi
5:58 PM48 °FPartly sunny.17 mph63%29.79 "Hg9 mi
4:58 PM46 °FCloudy.16 mph76%29.78 "Hg9 mi
Weather by CustomWeather, © 2015

See weather overviewHow to use our weather pages